User: anonymous   Login
Location: Unspecified
(0.0000°N, 0.0000°E)
Time: 05:43:16
(UTC+02:00)
Language:

CZ-2C R/B - Orbit

View from above orbital plane
View from above orbital plane
View from above satellite
View from above satellite

Ground track
Ground track

The orbit data is extracted from the following two-line orbital elements,

1 28480U 04046B   17289.37618047 +.00000023 +00000-0 +24741-4 0  9996
2 28480 098.1954 017.7604 0141185 226.5814 174.9351 14.25652101671486
Epoch (UTC): 16 October 2017 09:01:41
Eccentricity: 0.0141185
inclination: 98.1954°
perigee height: 705 km
apogee height: 908 km
right ascension of ascending node: 17.7604°
argument of perigee: 226.5814°
revolutions per day: 14.25652101
mean anomaly at epoch: 174.9351°
orbit number at epoch: 67148

The dashed part of the orbit path shows where the satellite is in the earth's shadow,  

DLR